Home > Weather > Leirvik > Past weeks

Flag for Norway Past Weather in Leirvik, Norway — Yesterday and Last 2 Weeks

Now
58 °F

Cool.


Feels Like: 57 °F
Forecast: 54 / 59 °F
Wind: 6 mph from South

Location: Slatteroy Fyr

Current Time: Jul 29, 2016 at 6:08:35 AM

Latest Report: Jul 29, 2016 at 5:00 AM


Visibility: N/A

Pressure: 29.75 "Hg

Humidity: 78%

Dew Point: 51 °F

Location of LeirvikLocation

Past Weather in Leirvik — Graph

°F

Leirvik Temperature Yesterday

Maximum temperature yesterday: 60 °F (at 6:00 PM)
Minimum temperature yesterday: 56 °F (at 3:00 AM)
Average temperature yesterday: 58 °F

High & Low Weather Summary for the Past Weeks

 TemperatureHumidityPressure
High74 °F (Jul 21, 12:00 PM)97% (Jul 19, 2:00 PM)30.13 "Hg (Jul 19, 2:00 PM)
Low53 °F (Jul 16, 3:00 AM)50% (Jul 21, 11:00 AM)29.70 "Hg (Jul 27, 9:00 PM)
Average59 °F84%29.95 "Hg
* Reported Jul 14 3:00 AM — Jul 29 3:00 AM, Leirvik, Weather by CustomWeather, © 2016

Note: Actual official high and low records may vary slightly from our data, if they occured in-between our weather recording intervals... More about our weather records

Advertising

Leirvik Weather History for the Previous 24 Hours

Scroll right to see more
 ConditionsComfort  
Time TempWeatherWind HumidityBarometerVisibility
3:00 AM
Fri, Jul 29
58 °FCool.7 mph83%29.76 "HgN/A
2:00 AM60 °FCool.7 mph78%29.77 "HgN/A
1:00 AM59 °FCool.9 mph78%29.77 "HgN/A
8:00 PM
Thu, Jul 28
60 °FCool.6 mph82%29.80 "HgN/A
6:00 PM60 °FCool.9 mph82%29.82 "HgN/A
5:00 PM59 °FCool.10 mph83%29.81 "HgN/A
3:00 PM58 °FCool.12 mph88%29.80 "HgN/A
2:00 PM58 °FCool.12 mph90%29.79 "HgN/A
1:00 PM58 °FCool.12 mph90%29.79 "HgN/A
12:00 PM57 °FCool.8 mph90%29.79 "HgN/A
11:00 AM59 °FCool.9 mph77%29.78 "HgN/A
10:00 AM59 °FCool.9 mph77%29.77 "HgN/A
9:00 AM59 °FCool.9 mph81%29.75 "HgN/A
8:00 AM59 °FCool.8 mph83%29.75 "HgN/A
7:00 AM58 °FCool.10 mph78%29.74 "HgN/A
6:00 AM58 °FCool.12 mph80%29.73 "HgN/A
Weather by CustomWeather, © 2016

See weather overviewHow to use our weather pages